[[{"header":{"parameterUnit":"m.s-1","parameterCategory":1,"la1":30.2991,"la2":30.254,"lo1":-89.0895,"lo2":-89.0444,"dy":0.0017,"dx":0.0017,"nx":28,"ny":28,"refTime":"2023-08-09T09:00:00:Z","depth":0,"parameterNumber":2,"parameterNumberName":"U-component_of_WINDS"},"data":[0,0,0,0,0,0,0,0,0,0,0,0,0,0,0,0,0,0,0,0,0,0,0,0,0,0,0,0,0,0,0,0,0,0,0,0,0,0,0,0,0,0,0,0,0,0,0,0,0,0,0,0,0,0,0,0,0,0,5.2202,5.2202,0,5.2236,5.2237,5.2237,5.2225,5.2224,5.2223,5.2222,5.2259,5.226,5.2262,0,0,0,0,0,0,0,0,0,0,0,0,0,5.2124,5.2126,5.2202,5.2202,5.2202,5.2236,5.2237,5.2237,5.2225,5.2224,5.2223,5.2222,5.2258,5.226,5.2262,0,0,0,0,0,0,0,0,0,0,0,0,0,5.2159,5.2126,5.2201,5.22,5.2201,5.2236,5.2237,5.2237,5.2225,5.2224,5.2223,5.2222,5.2257,5.226,5.2262,5.2301,0,0,5.227,5.2271,0,0,0,0,0,0,0,0,5.2157,5.2161,5.22,5.22,5.2201,5.2225,5.2223,5.2259,5.2225,5.2216,5.2222,5.2221,5.2248,5.2252,5.2261,5.2303,5.2305,5.227,5.2272,5.2273,5.2274,0,0,0,0,0,0,0,5.2154,5.216,5.2215,5.2201,5.2201,5.2198,5.2202,5.223,5.2238,5.2217,5.2216,5.222,5.2248,5.2258,5.2261,5.2305,5.227,5.2272,5.2274,5.2275,5.2381,5.2382,0,0,0,0,0,0,5.2152,5.2158,5.2214,5.2216,5.2175,5.22,5.2204,5.2218,5.2238,5.224,5.2221,5.2219,5.2255,5.2259,5.2263,5.2309,5.2273,5.2275,5.2277,5.238,5.2381,5.2383,0,0,0,0,0,0,5.215,5.2157,5.2213,5.2187,5.2194,5.2203,5.2219,5.222,5.223,5.2241,5.2243,5.2229,5.2254,5.2259,5.2292,5.231,5.2276,5.2279,5.2378,5.238,5.2382,5.2402,0,0,0,0,0,0,5.2148,5.2156,5.2171,5.2187,5.2195,5.2241,5.222,5.2221,5.2234,5.2232,5.225,5.2251,5.2253,5.2288,5.2294,5.2313,5.2281,5.2377,5.2379,5.2382,5.24,5.2405,5.2409,0,0,0,0,0,5.2145,5.2176,5.2172,5.2179,5.2214,5.2242,5.2247,5.2248,5.2235,5.225,5.2258,5.2251,5.2308,5.2291,5.2298,5.2318,5.2376,5.2379,5.2381,5.2398,5.2404,5.2409,0,0,0,0,0,0,5.2161,5.2178,5.2174,5.221,5.2225,5.224,5.2259,5.2254,5.2273,5.227,5.2271,5.2276,5.2309,5.2317,5.2299,5.2357,5.234,5.2344,5.235,5.2355,5.236,5.2356,5.2283,0,0,0,0,0,5.2169,5.219,5.2204,5.2235,5.2242,5.2249,5.2262,5.2262,5.2277,5.2283,5.2293,5.2308,5.2329,5.2343,5.2363,5.2402,5.2405,5.2419,5.2423,5.2427,5.243,5.245,5.2456,5.2392,5.2392,5.2392,0,0,5.2185,5.2197,5.221,5.2238,5.2249,5.2271,5.2254,5.2279,5.2295,5.2287,5.2317,5.2326,5.2343,5.2378,5.2395,5.2386,5.2449,5.243,5.2433,5.2434,5.2454,5.246,5.2465,5.2394,5.2394,5.2394,0,0,5.2225,5.2237,5.2263,5.2275,5.2292,5.2297,5.2304,5.232,5.2324,5.2356,5.235,5.237,5.2406,5.2419,5.243,5.2476,5.2469,5.2482,5.2504,5.2524,5.2529,5.2534,5.2549,5.2554,5.2486,5.2486,5.2486,0,5.2242,5.2275,5.2277,5.2302,5.2314,5.2308,5.2335,5.2346,5.237,5.2378,5.2369,5.2415,5.2426,5.2464,5.2475,5.2485,5.2492,5.2479,5.2528,5.2533,5.2537,5.2551,5.2557,5.2487,5.2487,5.2487,5.2487,0,5.2296,5.2319,5.2338,5.2361,5.2375,5.2401,5.2407,5.2422,5.2421,5.2427,5.2459,5.2472,5.2495,5.2504,5.2504,5.2542,5.2536,5.2528,5.251,5.2544,5.2558,5.2564,5.2489,5.2489,5.2488,5.2488,0,0,5.2345,5.2369,5.2376,5.2386,5.2405,5.2423,5.2449,5.2471,5.2483,5.25,5.2521,5.2552,5.2544,5.2557,5.2558,5.2576,5.261,5.2565,5.2565,5.2572,5.2652,5.2657,5.2664,5.2607,5.2608,5.2609,5.2651,0,5.2386,5.243,5.2433,5.2473,5.2494,5.2489,5.2512,5.2526,5.2532,5.2551,5.2559,5.2581,5.2569,5.2577,5.2594,5.2602,5.2626,5.26,5.2626,5.2627,5.262,5.2671,5.2677,5.2715,5.2656,5.2657,5.2658,0,5.2439,5.2457,5.2499,5.2515,5.2524,5.2544,5.2564,5.2583,5.2599,5.2603,5.2617,5.2616,5.2642,5.2625,5.2661,5.2643,5.2654,5.266,5.2662,5.2663,5.2643,5.2672,5.2727,5.2733,5.2666,5.2666,5.2665,0,5.2469,5.2504,5.2534,5.2543,5.2563,5.2577,5.2586,5.2601,5.2614,5.2632,5.264,5.2662,5.2673,5.269,5.2694,5.2681,5.273,5.2713,5.2733,5.2733,5.2742,5.2741,5.2798,5.2752,5.2752,5.2752,5.2752,0,5.2513,5.2539,5.2547,5.2565,5.2594,5.2598,5.2626,5.2634,5.2648,5.2668,5.2666,5.2684,5.269,5.2709,5.2713,5.2742,5.2748,5.2751,5.2751,5.275,5.2749,5.2756,5.2753,5.2753,5.2753,5.2753,5.2753,0,5.2551,5.2558,5.2589,5.2606,5.2611,5.2631,5.2645,5.2663,5.2669,5.2694,5.27,5.2711,5.2734,5.274,5.2768,5.2771,5.2804,5.2803,5.2798,5.2798,5.2817,5.2814,5.2879,5.2887,5.2837,5.2837,5.2838,0,5.2577,5.2597,5.2616,5.2629,5.2638,5.2659,5.2673,5.2677,5.2691,5.2712,5.2726,5.2749,5.2767,5.2804,5.2814,5.2836,5.2834,5.2855,5.2837,5.2835,5.2833,5.2831,5.2832,5.2858,5.2859,5.2859,5.2859,0,5.2624,5.2626,5.2646,5.2666,5.2682,5.2699,5.2714,5.2725,5.2732,5.2748,5.2771,5.2786,5.2814,5.2836,5.2858,5.2868,5.2864,5.2865,5.2871,5.2869,5.2865,5.2866,5.2806,5.2863,5.2863,5.2863,5.2862,5.2862,5.2656,5.2673,5.2689,5.271,5.2723,5.2738,5.2754,5.2763,5.2783,5.2806,5.2808,5.2833,5.2849,5.2878,5.2889,5.2909,5.2902,5.2911,5.2912,5.2914,5.2915,5.2863,5.2913,5.2913,5.2913,5.2913,5.2913,0,5.2701,5.2711,5.2731,5.2753,5.277,5.2766,5.2784,5.2798,5.282,5.2835,5.2853,5.288,5.2902,5.2914,5.2936,5.295,5.2949,5.2955,5.2953,5.2955,5.292,5.2912,5.2955,5.2955,5.2955,5.2955,5.2955,5.2955,5.2726,5.2754,5.2759,5.2794,5.2804,5.2828,5.2838,5.2852,5.2864,5.2894,5.2912,5.292,5.2934,5.2957,5.2977,5.298,5.2987,5.2994,5.2996,5.2962,5.2958,5.2954,5.2946,5.2996,5.2996,5.303,5.3031,5.3031]},{"header":{"parameterUnit":"m.s-1","parameterCategory":1,"la1":30.2991,"la2":30.254,"lo1":-89.0895,"lo2":-89.0444,"dy":0.0017,"dx":0.0017,"nx":28,"ny":28,"refTime":"2023-08-09T09:00:00:Z","depth":0,"parameterNumber":3,"parameterNumberName":"V-component_of_WINDS"},"data":[0,0,0,0,0,0,0,0,0,0,0,0,0,0,0,0,0,0,0,0,0,0,0,0,0,0,0,0,0,0,0,0,0,0,0,0,0,0,0,0,0,0,0,0,0,0,0,0,0,0,0,0,0,0,0,0,0,0,3.8451,3.8451,0,3.8464,3.8464,3.8464,3.8468,3.8468,3.8468,3.8468,3.848,3.848,3.8481,0,0,0,0,0,0,0,0,0,0,0,0,0,3.8427,3.8427,3.8451,3.8451,3.8451,3.8464,3.8464,3.8464,3.8468,3.8468,3.8468,3.8468,3.848,3.848,3.8481,0,0,0,0,0,0,0,0,0,0,0,0,0,3.8438,3.8428,3.8451,3.8455,3.8455,3.8464,3.8464,3.8465,3.8468,3.8468,3.8468,3.8468,3.848,3.848,3.8481,3.8486,0,0,3.8482,3.8483,0,0,0,0,0,0,0,0,3.8438,3.8439,3.8454,3.8455,3.8455,3.8465,3.846,3.8472,3.8468,3.8463,3.8468,3.8468,3.8475,3.8476,3.8478,3.8487,3.8487,3.8482,3.8483,3.8483,3.8483,0,0,0,0,0,0,0,3.8437,3.8439,3.8456,3.8454,3.8455,3.8455,3.8457,3.8462,3.8469,3.8464,3.8464,3.8466,3.8475,3.8478,3.8479,3.8487,3.8482,3.8483,3.8483,3.8484,3.85,3.85,0,0,0,0,0,0,3.8436,3.8438,3.8456,3.8457,3.8446,3.8456,3.8457,3.8462,3.8469,3.847,3.8466,3.8466,3.8477,3.8478,3.8479,3.8485,3.8483,3.8484,3.8484,3.85,3.85,3.85,0,0,0,0,0,0,3.8435,3.8437,3.8455,3.8447,3.845,3.8456,3.8461,3.8462,3.8465,3.8471,3.8472,3.8467,3.8477,3.8478,3.8484,3.8486,3.8484,3.8484,3.85,3.85,3.85,3.8499,0,0,0,0,0,0,3.8435,3.8437,3.844,3.8447,3.845,3.8461,3.8461,3.8462,3.8466,3.8466,3.8473,3.8474,3.8477,3.8483,3.8485,3.8487,3.8485,3.85,3.85,3.85,3.8498,3.8499,3.8499,0,0,0,0,0,3.8434,3.8439,3.844,3.8442,3.8454,3.8461,3.8462,3.8466,3.8466,3.8468,3.8472,3.8473,3.8485,3.8484,3.8486,3.8488,3.8499,3.85,3.85,3.8498,3.8499,3.8499,0,0,0,0,0,0,3.8431,3.844,3.8441,3.8449,3.8454,3.8462,3.8465,3.8467,3.8472,3.8472,3.8476,3.8477,3.8483,3.8486,3.8484,3.8493,3.8492,3.8493,3.8491,3.8491,3.8491,3.849,3.8485,0,0,0,0,0,3.8431,3.8437,3.8444,3.845,3.8453,3.8458,3.8462,3.8464,3.847,3.8472,3.8476,3.848,3.8485,3.8488,3.8493,3.8499,3.85,3.8501,3.8501,3.8501,3.8502,3.8504,3.8504,3.8501,3.8501,3.8501,0,0,3.8432,3.8438,3.8441,3.845,3.8454,3.8459,3.846,3.8466,3.8469,3.8472,3.8478,3.8481,3.8487,3.8493,3.8495,3.8495,3.8503,3.8501,3.8501,3.8502,3.8504,3.8505,3.8505,3.8501,3.8501,3.8501,0,0,3.8436,3.8441,3.8446,3.8451,3.8457,3.8461,3.8462,3.8469,3.8471,3.8477,3.8479,3.8483,3.8491,3.8495,3.8498,3.8502,3.8503,3.8503,3.8504,3.8506,3.8507,3.8507,3.8508,3.8508,3.8504,3.8504,3.8504,0,3.8436,3.8444,3.8449,3.8454,3.8458,3.8461,3.8466,3.8469,3.8477,3.8479,3.8479,3.8489,3.8493,3.8499,3.85,3.8502,3.8503,3.8503,3.8506,3.8507,3.8507,3.8508,3.8509,3.8504,3.8504,3.8504,3.8504,0,3.8443,3.8449,3.8452,3.846,3.8464,3.8469,3.8474,3.8477,3.8479,3.8482,3.8488,3.8492,3.8498,3.8499,3.8501,3.8506,3.8505,3.8506,3.8505,3.8507,3.8508,3.8509,3.8504,3.8504,3.8504,3.8504,0,0,3.8446,3.8456,3.8457,3.846,3.8467,3.8471,3.8476,3.8482,3.8484,3.8489,3.8493,3.8499,3.8499,3.8503,3.8505,3.8507,3.8509,3.8507,3.8507,3.8507,3.8514,3.8513,3.8514,3.851,3.851,3.851,3.8513,0,3.8451,3.846,3.8464,3.8471,3.8476,3.8479,3.8483,3.8487,3.849,3.8494,3.8497,3.8501,3.8501,3.8503,3.8506,3.8509,3.8511,3.8508,3.8513,3.8513,3.8512,3.8514,3.8514,3.8517,3.8514,3.8514,3.8514,0,3.8457,3.8463,3.847,3.8476,3.8478,3.8482,3.8487,3.8491,3.8496,3.8497,3.8501,3.8503,3.8507,3.8506,3.8512,3.851,3.8512,3.8514,3.8514,3.8514,3.8514,3.8515,3.8518,3.8518,3.8515,3.8515,3.8515,0,3.8458,3.8467,3.8473,3.8475,3.8482,3.8485,3.8488,3.8492,3.8495,3.8499,3.8501,3.8505,3.8508,3.8511,3.8514,3.8513,3.8519,3.8518,3.852,3.852,3.8521,3.8521,3.8524,3.8522,3.8522,3.8522,3.8522,0,3.8463,3.8467,3.8473,3.8476,3.8481,3.8485,3.849,3.8493,3.8496,3.85,3.8502,3.8505,3.8509,3.8512,3.8514,3.8518,3.852,3.8521,3.8521,3.852,3.852,3.8522,3.8522,3.8523,3.8523,3.8523,3.8523,0,3.8464,3.8469,3.8475,3.8481,3.8482,3.8486,3.8491,3.8494,3.8496,3.8501,3.8502,3.8506,3.851,3.8513,3.8518,3.852,3.8524,3.8524,3.8522,3.8523,3.8524,3.8524,3.8528,3.8529,3.8527,3.8527,3.8527,0,3.8467,3.847,3.8477,3.848,3.8483,3.8487,3.849,3.8493,3.8496,3.8501,3.8504,3.8508,3.8512,3.8518,3.8521,3.8525,3.8525,3.8526,3.8526,3.8525,3.8525,3.8525,3.8525,3.8526,3.8526,3.8526,3.8526,0,3.8471,3.8472,3.8477,3.8482,3.8485,3.8489,3.8493,3.8495,3.8499,3.8502,3.8507,3.851,3.8515,3.8519,3.8523,3.8525,3.8526,3.8527,3.8527,3.8526,3.8525,3.8525,3.8522,3.8527,3.8527,3.8527,3.8527,3.8527,3.8473,3.8476,3.8481,3.8485,3.8489,3.8492,3.8495,3.8498,3.8502,3.8507,3.8509,3.8513,3.8517,3.8522,3.8524,3.8527,3.8527,3.8528,3.8528,3.8529,3.8528,3.8525,3.8528,3.8528,3.8528,3.8528,3.8528,0,3.8476,3.8479,3.8484,3.8489,3.8493,3.8494,3.8498,3.8501,3.8505,3.8508,3.8512,3.8516,3.852,3.8523,3.8527,3.8529,3.8529,3.853,3.8529,3.853,3.8528,3.8527,3.8529,3.8529,3.8529,3.8529,3.8529,3.8529,3.8479,3.8484,3.8486,3.8492,3.8495,3.85,3.8502,3.8505,3.8508,3.8513,3.8516,3.8519,3.8522,3.8526,3.8529,3.853,3.8531,3.8531,3.8532,3.853,3.853,3.853,3.8529,3.8531,3.8531,3.8533,3.8533,3.8533]}]]